DW7073 Weather Reports


Display with metric or nautical units.
time (UTC)temp
F
wind
direction
speed
MPH
gust
MPH
rain 1hr
in
rain 24hr
in
rain mn
in
humidity
%
barometer
mb
20260502205403 70 292 1.0 4.0 0.07 0.28 0.28 95 1009.2
20260502204503 70 276 2.0 7.0 0.05 0.25 0.25 95 1010.2
20260502203603 70 277 1.0 6.0 0.04 0.23 0.23 95 1010.9
20260502202703 70 273 1.0 6.0 0.05 0.23 0.23 95 1010.8
20260502201803 70 289 2.0 11.0 0.09 0.23 0.23 95 1010.8
20260502200903 70 294 3.0 9.0 0.09 0.23 0.23 95 1010.2
20260502200003 70 291 2.0 9.0 0.08 0.22 0.22 94 1010.7
20260502195403 70 285 3.0 10.0 0.08 0.21 0.21 95 1011.5
20260502194503 70 295 4.0 11.0 0.07 0.20 0.20 94 1010.8
20260502193603 70 299 5.0 14.0 0.06 0.19 0.19 94 1010.3
20260502192703 71 298 9.0 26.0 0.05 0.18 0.18 90 1010.8
20260502191803 75 299 6.0 19.0 0.01 0.14 0.14 89 1011.0
20260502190903 76 297 1.0 6.0 0.01 0.14 0.14 94 1010.1
20260502190213 76 308 1.0 3.0 0.14 0.14 0.14 94 1009.9
20260502185403 75 313 0.0 2.0 0.13 0.13 0.13 95 1009.9
20260502184503 74 135 0.0 1.0 0.13 0.13 0.13 94 1010.0
20260502183603 74 330 0.0 1.0 0.13 0.13 0.13 95 1010.0
20260502182703 73 334 0.0 3.0 0.13 0.13 0.13 93 1009.9
20260502181803 73 127 1.0 3.0 0.13 0.13 0.13 92 1010.0
20260502180903 75 288 6.0 18.0 0.13 0.13 0.13 86 1010.0
20260502180213 85 286 5.0 15.0 0.00 0.00 0.01 71 1011.2
20260502170212 87 274 4.0 11.0 0.00 0.00 0.00 68 1009.8
20260502163603 87 251 4.0 11.0 0.00 0.00 0.00 68 1009.8
20260502162703 87 269 3.0 9.0 0.00 0.00 0.00 66 1009.7
20260502161803 88 229 3.0 13.0 0.00 0.00 0.00 66 1009.7
20260502160903 87 270 2.0 9.0 0.00 0.00 0.00 70 1009.9
20260502151803 83 248 2.0 10.0 0.00 0.00 0.00 72 1010.5
20260502150903 82 237 1.0 5.0 0.00 0.00 0.00 73 1010.6
20260502123603 70 0 0.0 0.0 0.00 0.00 0.00 97 1009.9
20260502122703 70 0 0.0 0.0 0.00 0.00 0.00 97 1009.9
20260502122014 70 0 0.0 0.0 0.00 0.00 0.00 97 1009.9
20260502120903 70 0 0.0 0.0 0.00 0.00 0.00 97 1009.8
20260502115403 70 0 0.0 0.0 0.00 0.00 0.00 97 1009.7
20260502114503 70 0 0.0 0.0 0.00 0.00 0.00 97 1009.7
20260502113603 70 0 0.0 0.0 0.00 0.00 0.00 97 1009.6
20260502112703 70 0 0.0 0.0 0.00 0.00 0.00 97 1009.7
20260502111803 70 0 0.0 0.0 0.00 0.00 0.00 97 1009.4
20260502111113 70 0 0.0 0.0 0.00 0.00 0.00 97 1009.1
20260502110214 70 0 0.0 0.0 0.00 0.00 0.00 97 1009.1
20260502105403 70 0 0.0 0.0 0.00 0.00 0.00 97 1009.1
20260502104503 70 0 0.0 0.0 0.00 0.00 0.00 97 1008.8
20260502103812 70 0 0.0 0.0 0.00 0.00 0.00 97 1008.8
20260502102703 70 0 0.0 0.0 0.00 0.00 0.00 97 1008.9
20260502101803 70 0 0.0 0.0 0.00 0.00 0.00 97 1008.9
20260502100903 70 0 0.0 0.0 0.00 0.00 0.00 97 1009.1
20260502091114 71 257 0.0 1.0 0.00 0.00 0.00 96 1009.7
20260502070903 73 307 0.0 2.0 0.00 0.00 0.00 90 1009.6
20260502070003 74 299 1.0 4.0 0.00 0.00 0.00 89 1009.7
20260502065403 74 298 0.0 4.0 0.00 0.00 0.00 90 1009.9
20260502064504 74 300 1.0 2.0 0.00 0.00 0.00 88 1010.0
20260502063603 74 294 0.0 3.0 0.00 0.00 0.00 90 1010.0
20260502062703 74 299 0.0 2.0 0.00 0.00 0.00 88 1010.0
20260502060903 74 313 1.0 3.0 0.00 0.00 0.00 87 1010.2
20260502060003 74 308 0.0 3.0 0.00 0.00 0.00 90 1010.3
20260502055404 74 304 0.0 2.0 0.00 0.00 0.00 89 1010.2
20260502054503 74 300 1.0 2.0 0.00 0.00 0.00 92 1010.3
20260502053603 74 280 0.0 2.0 0.00 0.00 0.00 92 1010.2
20260502052703 74 294 1.0 2.0 0.00 0.00 0.00 94 1010.4
20260502051803 74 285 0.0 2.0 0.00 0.00 0.00 95 1010.3
20260502051113 74 283 0.0 1.0 0.00 0.00 0.00 95 1010.4
20260502050003 74 0 0.0 0.0 0.00 0.00 0.00 94 1010.4
20260502045403 74 318 0.0 1.0 0.00 0.00 0.00 94 1010.4
20260502044504 74 0 0.0 0.0 0.00 0.00 0.00 94 1010.3
20260502043603 74 0 0.0 0.0 0.00 0.00 0.00 93 1010.2
20260502042703 74 0 0.0 0.0 0.00 0.00 0.00 94 1010.3
20260502041803 74 323 0.0 1.0 0.00 0.00 0.00 93 1010.3
20260502040903 74 0 0.0 0.0 0.00 0.00 0.00 94 1010.3
20260502040003 74 0 0.0 0.0 0.00 0.00 0.00 93 1010.3
20260502035403 74 0 0.0 0.0 0.00 0.00 0.00 93 1010.4
20260502034503 75 0 0.0 0.0 0.00 0.00 0.00 92 1010.5
20260502033603 75 0 0.0 0.0 0.00 0.00 0.00 91 1010.5
20260502032703 76 0 0.0 0.0 0.00 0.00 0.00 91 1010.5
20260502031803 76 0 0.0 0.0 0.00 0.00 0.00 90 1010.6
20260502030903 76 325 0.0 1.0 0.00 0.00 0.00 89 1010.5
20260502030003 77 335 0.0 1.0 0.00 0.00 0.00 87 1010.5
20260502025403 77 314 0.0 2.0 0.00 0.00 0.00 87 1010.5
20260502024503 77 302 0.0 3.0 0.00 0.00 0.00 86 1010.7
20260502023603 78 309 1.0 3.0 0.00 0.00 0.00 87 1010.6
20260502022703 78 52 0.0 1.0 0.00 0.00 0.00 85 1010.5
20260502022014 78 57 0.0 1.0 0.00 0.00 0.00 84 1010.6
20260502020903 79 88 1.0 2.0 0.00 0.00 0.00 84 1010.6
20260502020003 80 342 0.0 2.0 0.00 0.00 0.00 82 1010.6
20260502015403 80 11 0.0 2.0 0.00 0.00 0.00 82 1010.6
20260502014503 80 41 0.0 1.0 0.00 0.00 0.00 82 1010.6
20260502013813 80 5 0.0 2.0 0.00 0.00 0.00 80 1010.6
20260502012703 80 13 1.0 3.0 0.00 0.00 0.00 81 1010.4
20260502011803 81 3 0.0 2.0 0.00 0.00 0.00 79 1010.4
20260502011113 81 71 1.0 3.0 0.00 0.00 0.00 80 1010.3
20260502010003 80 99 1.0 3.0 0.00 0.00 0.00 80 1010.2
20260502005403 81 87 1.0 2.0 0.00 0.00 0.00 79 1010.1
20260502004503 81 97 3.0 6.0 0.00 0.00 0.00 79 1010.0
20260502003603 81 93 3.0 5.0 0.00 0.00 0.00 78 1009.6
20260502002703 81 100 2.0 5.0 0.00 0.00 0.00 77 1009.5
20260502001803 82 89 2.0 4.0 0.00 0.00 0.00 77 1009.4
20260502001113 82 91 2.0 4.0 0.00 0.00 0.00 76 1009.2
20260502000004 82 87 3.0 6.0 0.00 0.00 0.00 77 1009.0
20260501235403 82 88 3.0 6.0 0.00 0.00 0.00 76 1009.0
20260501234503 83 90 3.0 5.0 0.00 0.00 0.00 77 1008.8
20260501233603 83 92 4.0 10.0 0.00 0.00 0.00 76 1008.8
20260501232703 84 98 4.0 11.0 0.00 0.00 0.00 75 1008.6
20260501231803 85 99 3.0 7.0 0.00 0.00 0.00 73 1008.6
20260501231112 85 93 3.0 7.0 0.00 0.00 0.00 72 1008.5
20260501230003 89 56 1.0 4.0 0.00 0.00 0.00 66 1008.3
20260501225403 90 23 1.0 4.0 0.00 0.00 0.00 60 1008.2
20260501224503 92 298 1.0 3.0 0.00 0.00 0.00 49 1008.1
20260501223603 91 180 1.0 4.0 0.00 0.00 0.00 49 1008.0
20260501222703 92 339 0.0 3.0 0.00 0.00 0.00 51 1008.0
20260501221803 89 313 1.0 4.0 0.00 0.00 0.00 53 1007.9
20260501220903 91 2 1.0 3.0 0.00 0.00 0.00 52 1007.8
20260501220213 90 325 1.0 3.0 0.00 0.00 0.00 51 1007.8
20260501215404 90 318 1.0 3.0 0.00 0.00 0.00 52 1008.0
20260501214503 90 306 1.0 3.0 0.00 0.00 0.00 52 1007.9
20260501213814 91 308 2.0 4.0 0.00 0.00 0.00 53 1007.9
20260501212703 91 306 3.0 8.0 0.00 0.00 0.00 51 1007.9
20260501211803 92 310 2.0 6.0 0.00 0.00 0.00 52 1007.8
20260501210903 92 342 1.0 4.0 0.00 0.00 0.00 47 1008.1
20260501210003 93 312 2.0 6.0 0.00 0.00 0.00 50 1008.2